Home > Weather > Thiès > Past weeks

Flag for Senegal Past Weather in Thiès, Senegal — Yesterday and Last 2 Weeks

Now
82 °F

Passing clouds.


Feels Like: 89 °F
Forecast: 78 / 91 °F
Wind: 8 mph from Southwest

Location: Dakar / Yoff

Current Time: Aug 25, 2016 at 10:10:18 AM

Latest Report: Aug 25, 2016 at 9:30 AM


Visibility: 6 mi

Pressure: 29.83 "Hg

Humidity: 79%

Dew Point: 75 °F

Location of ThièsLocation

Past Weather in Thiès — Graph

°F

Thiès Temperature Yesterday

Maximum temperature yesterday: 86 °F (at 11:00 AM)
Minimum temperature yesterday: 81 °F (at 2:30 AM)
Average temperature yesterday: 82 °F

High & Low Weather Summary for the Past Weeks

 TemperatureHumidityPressure
High90 °F (Aug 21, 4:00 PM)100% (Aug 12, 3:30 AM)30.04 "Hg (Aug 12, 3:30 AM)
Low75 °F (Aug 12, 3:30 AM)62% (Aug 10, 2:00 PM)29.77 "Hg (Aug 24, 3:00 PM)
Average82 °F82%29.89 "Hg
* Reported Aug 10 9:00 AM — Aug 25 9:00 AM, Thiès, Weather by CustomWeather, © 2016

Note: Actual official high and low records may vary slightly from our data, if they occured in-between our weather recording intervals... More about our weather records

Advertising

Thiès Weather History for the Previous 24 Hours

Scroll right to see more
 ConditionsComfort  
Time TempWeatherWind HumidityBarometerVisibility
9:00 AM
Thu, Aug 25
82 °FScattered clouds.7 mph79%29.83 "Hg6 mi
8:30 AM81 °FScattered clouds.7 mph84%29.83 "Hg6 mi
8:00 AM81 °FScattered clouds.7 mph84%29.80 "Hg6 mi
7:30 AM81 °FScattered clouds.7 mph84%29.80 "Hg6 mi
7:00 AM79 °FPassing clouds.7 mph89%29.80 "Hg6 mi
6:30 AM79 °FPassing clouds.7 mph89%29.80 "HgN/A
6:00 AM81 °FPassing clouds.7 mph84%29.77 "HgN/A
5:30 AM81 °FPassing clouds.6 mph84%29.77 "HgN/A
5:00 AM81 °FPassing clouds.6 mph84%29.77 "HgN/A
4:30 AM81 °FPassing clouds.5 mph84%29.80 "HgN/A
4:00 AM81 °FPassing clouds.5 mph84%29.80 "HgN/A
3:30 AM81 °FPassing clouds.6 mph84%29.80 "HgN/A
3:00 AM81 °FPassing clouds.6 mph84%29.80 "HgN/A
2:30 AM81 °FPassing clouds.5 mph84%29.80 "HgN/A
2:00 AM81 °FPassing clouds.5 mph84%29.80 "HgN/A
1:30 AM81 °FPassing clouds.5 mph84%29.80 "HgN/A
1:00 AM81 °FPassing clouds.5 mph84%29.80 "HgN/A
12:30 AM81 °FPassing clouds.5 mph84%29.80 "HgN/A
12:00 AM81 °FPassing clouds.5 mph84%29.83 "HgN/A
11:30 PM
Wed, Aug 24
81 °FPassing clouds.5 mph84%29.83 "HgN/A
11:00 PM81 °FPassing clouds.5 mph84%29.83 "HgN/A
10:30 PM81 °FPassing clouds.5 mph84%29.83 "HgN/A
10:00 PM81 °FPassing clouds.3 mph84%29.83 "Hg5 mi
9:30 PM81 °FPassing clouds.6 mph84%29.83 "Hg5 mi
9:00 PM81 °FPassing clouds.6 mph84%29.80 "Hg5 mi
8:30 PM81 °FPassing clouds.6 mph84%29.80 "Hg5 mi
8:00 PM82 °FPassing clouds.6 mph79%29.80 "Hg5 mi
7:30 PM82 °FPassing clouds.5 mph79%29.77 "Hg5 mi
7:00 PM82 °FScattered clouds.6 mph79%29.77 "Hg5 mi
6:30 PM84 °FScattered clouds.6 mph74%29.77 "Hg5 mi
6:00 PM84 °FScattered clouds.6 mph74%29.77 "Hg5 mi
5:30 PM84 °FScattered clouds.8 mph74%29.77 "Hg5 mi
5:00 PM84 °FScattered clouds.8 mph74%29.77 "Hg5 mi
4:30 PM84 °FScattered clouds.8 mph74%29.77 "Hg5 mi
4:00 PM84 °FScattered clouds.10 mph74%29.77 "Hg5 mi
3:30 PM84 °FScattered clouds.10 mph74%29.77 "Hg5 mi
3:00 PM84 °FScattered clouds.12 mph74%29.77 "Hg5 mi
2:30 PM84 °FScattered clouds.13 mph74%29.80 "Hg5 mi
2:00 PM84 °FScattered clouds.12 mph74%29.80 "Hg5 mi
1:30 PM84 °FScattered clouds.13 mph74%29.80 "HgN/A
1:00 PM84 °FScattered clouds.12 mph74%29.83 "HgN/A
12:30 PM84 °FScattered clouds.12 mph74%29.83 "HgN/A
12:00 PM84 °FScattered clouds.12 mph74%29.86 "HgN/A
11:30 AM84 °FScattered clouds.12 mph74%29.86 "HgN/A
11:00 AM86 °FPartly sunny.14 mph70%29.86 "HgN/A
10:30 AM84 °FPartly sunny.13 mph74%29.86 "HgN/A
10:00 AM82 °FPartly sunny.12 mph79%29.86 "HgN/A
Weather by CustomWeather, © 2016

See weather overviewHow to use our weather pages